Showing default

OSCAR 23 (KITSAT 1), 22077

Orbit data source: Space-Track

OSCAR 23 (KITSAT 1), 22077 is a payload satellite owned by KAIST (KR) in LEO that was launched on Mon, 10 Aug 1992 UTC via an ARIANE 42P launch vehicle from the French Guiana (FRGUI). Payload-class satellites include a variety of spacecraft equipped with specific instruments for various scientific and technological missions. These include communications satellites like Starlink; space stations such as the ISS; scientific satellites like the Hubble; Earth observation satellites from companies like Planet Labs, Umbra, and HawkEye 360; GPS; miniature CubeSats for education and research; and military/defense satellites.

Loading next visibility...
Identifier
22077, 1992-052B
Orbit
LEO
Country
Flag of KRKR / SKOR
Related business
Manufacturer
SSTL
Mission
Non-operational Civil Communications
Bus & Motor
UOSAT, Unknown motor
Mass
48 kg wet, 48 kg dry
Launch date (UTC)
1992-08-10 (34 years ago)
Launch vehicle
ARIANE 42P
Launch site
French Guiana (FRGUI)
Object type
Payload
Rocket body
Debris
Shape & HBR
Hex Poly, 0.3 m
Radar Cross Section
0.353 m², Medium (>0.1 m² and < 1m²)

Expand to show TLE details & history
Last TLE update: 8 hours ago

TLE from 8 hours ago
0 OSCAR 23 (KITSAT 1)
1 22077U 92052B   26094.24188068 -.00000059  00000-0  11319-4 0  9998
2 22077  66.0835  76.0216 0013822 300.6873 158.4501 12.86610742580175
Epoch: 2026-04-04T05:48Z
TLE epoch observation values (Epoch: 2026-04-04T05:48:18.490Z)
Latitude
64.58149°
Longitude
-91.82921°
Altitude
1,335.162 km
Speed
7.192 km/s
True Right ascension
12h 31m 14s
True Declination
64° 27' 29"
Sunlit
Object was in daylight at epoch
Visualization orbit readout
Latitude
Unknown
Longitude
Unknown
Altitude
Unknown
Speed
Unknown
Apparent Right ascension
Unknown
Apparent Declination
Unknown
Sunlit
N/A
Visualization observer readout
Local Sidereal Time
19:12:01
Azimuth
Unknown
Elevation
Unknown
Doppler factor
Unknown
Orbital elements
Apogee altitude
1,324.19 km
Perigee altitude
1,302.927 km
Semi-major axis
7,691.695 km
Eccentricity
0.00138
Inclination
66.0835°
RAAN
76.0216°
Arg. of periapsis
300.6873°
True anomaly
158.50818°
Mean anomaly
158.4501°
Eccentric anomaly
158.47915°
Mean motion
3.21744 °/min
Orbital period
111.89 mins
BSTAR
0.000011319
Loading maneuver chart data...
Computing Atmospheric mass density...
Loading historical data...
Loading historical data...
Loading historical data...
Loading historical data...
Loading historical data...
Loading historical data...
Loading historical data...

Documentation

Showing up to 5 results
|